| time (UTC) | temp C | wind direction | speed KPH | gust KPH | rain 1hr cm | rain 24hr cm | rain mn cm | humidity % | barometer mb |
| 20260503013338 | 18 | 51 | 3.2 | 12.9 | 0.00 | 0.00 | 0.00 | 70 | 1013.1 |
| 20260503011828 | 18 | 15 | 4.8 | 11.3 | 0.00 | 0.00 | 0.00 | 70 | 1012.7 |
| 20260503010333 | 18 | 21 | 4.8 | 8.0 | 0.00 | 0.00 | 0.00 | 69 | 1012.6 |
| 20260503004840 | 18 | 21 | 4.8 | 12.9 | 0.00 | 0.00 | 0.00 | 70 | 1012.5 |
| 20260503003329 | 18 | 7 | 4.8 | 8.0 | 0.00 | 0.00 | 0.00 | 69 | 1012.6 |
| 20260503001833 | 19 | 17 | 3.2 | 8.0 | 0.00 | 0.00 | 0.00 | 68 | 1012.4 |
| 20260503000323 | 19 | 5 | 1.6 | 11.3 | 0.00 | 0.00 | 0.00 | 68 | 1012.3 |
| 20260502234830 | 19 | 356 | 6.4 | 12.9 | 0.00 | 0.00 | 0.00 | 71 | 1012.2 |
| 20260502233336 | 19 | 331 | 4.8 | 11.3 | 0.00 | 0.00 | 0.00 | 70 | 1012.4 |
| 20260502231819 | 18 | 19 | 4.8 | 11.3 | 0.00 | 0.00 | 0.00 | 71 | 1012.7 |
| 20260502230326 | 18 | 327 | 6.4 | 8.0 | 0.00 | 0.00 | 0.00 | 71 | 1012.8 |
| 20260502224854 | 17 | 329 | 4.8 | 8.0 | 0.00 | 0.00 | 0.00 | 72 | 1013.2 |
| 20260502223350 | 17 | 339 | 3.2 | 8.0 | 0.00 | 0.00 | 0.00 | 72 | 1013.7 |
| 20260502221857 | 18 | 339 | 8.0 | 12.9 | 0.00 | 0.00 | 0.00 | 71 | 1013.9 |
| 20260502220324 | 18 | 52 | 9.7 | 12.9 | 0.00 | 0.00 | 0.00 | 69 | 1013.9 |
| 20260502214826 | 18 | 335 | 8.0 | 14.5 | 0.00 | 0.00 | 0.00 | 68 | 1014.0 |
| 20260502213333 | 18 | 9 | 4.8 | 17.7 | 0.00 | 0.00 | 0.00 | 69 | 1014.3 |
| 20260502211823 | 18 | 323 | 3.2 | 14.5 | 0.00 | 0.00 | 0.00 | 68 | 1014.3 |
| 20260502210330 | 18 | 304 | 3.2 | 11.3 | 0.00 | 0.00 | 0.00 | 73 | 1014.4 |
| 20260502204835 | 18 | 359 | 4.8 | 19.3 | 0.00 | 0.00 | 0.00 | 70 | 1014.7 |
| 20260502203319 | 17 | 325 | 4.8 | 19.3 | 0.00 | 0.00 | 0.00 | 72 | 1014.8 |
| 20260502201846 | 17 | 4 | 4.8 | 17.7 | 0.00 | 0.00 | 0.00 | 74 | 1015.1 |
| 20260502200336 | 16 | 306 | 3.2 | 14.5 | 0.00 | 0.00 | 0.00 | 72 | 1015.1 |
| 20260502194824 | 16 | 325 | 6.4 | 11.3 | 0.00 | 0.00 | 0.00 | 73 | 1015.7 |
| 20260502193327 | 16 | 10 | 4.8 | 12.9 | 0.00 | 0.00 | 0.00 | 75 | 1015.8 |
| 20260502191832 | 14 | 7 | 4.8 | 12.9 | 0.00 | 0.00 | 0.00 | 76 | 1015.8 |
| 20260502190321 | 14 | 335 | 4.8 | 12.9 | 0.00 | 0.00 | 0.00 | 76 | 1016.2 |
| 20260502184850 | 13 | 325 | 1.6 | 11.3 | 0.00 | 0.00 | 0.00 | 78 | 1016.1 |
| 20260502183336 | 13 | 327 | 4.8 | 11.3 | 0.00 | 0.00 | 0.00 | 79 | 1016.2 |
| 20260502181823 | 12 | 22 | 3.2 | 4.8 | 0.00 | 0.00 | 0.00 | 82 | 1016.3 |
| 20260502180351 | 12 | 317 | 1.6 | 8.0 | 0.00 | 0.00 | 0.00 | 84 | 1016.2 |
| 20260502170336 | 11 | 360 | 9.7 | 14.5 | 0.00 | 0.00 | 0.00 | 85 | 1016.6 |
| 20260502163332 | 11 | 9 | 3.2 | 8.0 | 0.00 | 0.00 | 0.00 | 85 | 1016.7 |
| 20260502161820 | 11 | 359 | 4.8 | 11.3 | 0.00 | 0.00 | 0.00 | 86 | 1016.7 |
| 20260502160333 | 11 | 328 | 4.8 | 6.4 | 0.00 | 0.00 | 0.00 | 87 | 1016.6 |
| 20260502151823 | 10 | 264 | 1.6 | 4.8 | 0.00 | 0.00 | 0.00 | 89 | 1016.6 |
| 20260502150335 | 9 | 260 | 0.0 | 3.2 | 0.00 | 0.00 | 0.00 | 89 | 1016.6 |
| 20260502130324 | 8 | 223 | 8.0 | 11.3 | 0.00 | 0.00 | 0.00 | 87 | 1016.6 |
| 20260502123322 | 8 | 240 | 4.8 | 11.3 | 0.00 | 0.00 | 0.00 | 86 | 1016.5 |
| 20260502121833 | 8 | 242 | 4.8 | 11.3 | 0.00 | 0.00 | 0.00 | 86 | 1016.6 |
| 20260502120322 | 9 | 240 | 3.2 | 11.3 | 0.00 | 0.00 | 0.00 | 86 | 1016.5 |
| 20260502114829 | 9 | 229 | 4.8 | 9.7 | 0.00 | 0.00 | 0.00 | 85 | 1016.5 |
| 20260502113340 | 9 | 241 | 3.2 | 4.8 | 0.00 | 0.00 | 0.00 | 85 | 1016.5 |
| 20260502111826 | 10 | 240 | 1.6 | 4.8 | 0.00 | 0.00 | 0.00 | 85 | 1016.2 |
| 20260502110335 | 10 | 236 | 3.2 | 8.0 | 0.00 | 0.00 | 0.00 | 85 | 1016.5 |
| 20260502104822 | 10 | 273 | 1.6 | 4.8 | 0.00 | 0.00 | 0.00 | 84 | 1016.0 |
| 20260502103330 | 10 | 242 | 1.6 | 8.0 | 0.00 | 0.00 | 0.00 | 84 | 1016.2 |
| 20260502101822 | 10 | 245 | 4.8 | 14.5 | 0.00 | 0.00 | 0.00 | 84 | 1016.2 |
| 20260502100325 | 10 | 234 | 8.0 | 14.5 | 0.00 | 0.00 | 0.00 | 83 | 1016.1 |
| 20260502090331 | 11 | 230 | 8.0 | 16.1 | 0.00 | 0.00 | 0.00 | 81 | 1016.6 |
| 20260502070345 | 11 | 223 | 14.5 | 19.3 | 0.00 | 0.00 | 0.00 | 81 | 1017.2 |
| 20260502064832 | 11 | 240 | 11.3 | 20.9 | 0.00 | 0.00 | 0.00 | 82 | 1017.1 |
| 20260502063324 | 11 | 219 | 9.7 | 19.3 | 0.00 | 0.00 | 0.00 | 82 | 1017.1 |
| 20260502061833 | 11 | 231 | 12.9 | 24.1 | 0.00 | 0.00 | 0.00 | 83 | 1017.0 |
| 20260502060330 | 11 | 220 | 12.9 | 24.1 | 0.00 | 0.00 | 0.00 | 83 | 1017.1 |
| 20260502054839 | 11 | 238 | 9.7 | 25.7 | 0.00 | 0.00 | 0.00 | 83 | 1017.1 |
| 20260502053354 | 11 | 235 | 16.1 | 30.6 | 0.00 | 0.00 | 0.00 | 83 | 1016.9 |
| 20260502051822 | 11 | 237 | 17.7 | 25.7 | 0.00 | 0.00 | 0.00 | 83 | 1016.9 |
| 20260502050355 | 11 | 223 | 12.9 | 24.1 | 0.00 | 0.00 | 0.00 | 83 | 1016.8 |
| 20260502044831 | 11 | 221 | 16.1 | 24.1 | 0.00 | 0.00 | 0.00 | 83 | 1016.6 |
| 20260502043321 | 11 | 244 | 14.5 | 29.0 | 0.00 | 0.00 | 0.00 | 83 | 1016.6 |
| 20260502041833 | 11 | 217 | 14.5 | 30.6 | 0.00 | 0.00 | 0.00 | 83 | 1016.3 |
| 20260502040356 | 11 | 254 | 17.7 | 30.6 | 0.00 | 0.00 | 0.00 | 83 | 1016.2 |
| 20260502034819 | 12 | 267 | 16.1 | 30.6 | 0.00 | 0.00 | 0.00 | 82 | 1016.0 |
| 20260502033327 | 12 | 356 | 8.0 | 24.1 | 0.00 | 0.00 | 0.00 | 81 | 1016.1 |
| 20260502031837 | 12 | 222 | 17.7 | 29.0 | 0.00 | 0.00 | 0.00 | 81 | 1015.3 |
| 20260502030327 | 12 | 217 | 22.5 | 35.4 | 0.00 | 0.00 | 0.00 | 79 | 1015.1 |
| 20260502024843 | 13 | 230 | 20.9 | 29.0 | 0.00 | 0.00 | 0.00 | 78 | 1014.9 |
| 20260502023328 | 13 | 233 | 16.1 | 27.4 | 0.00 | 0.00 | 0.00 | 76 | 1014.9 |
| 20260502021837 | 14 | 222 | 17.7 | 29.0 | 0.00 | 0.00 | 0.00 | 75 | 1014.8 |
| 20260502020325 | 15 | 223 | 19.3 | 30.6 | 0.00 | 0.00 | 0.00 | 74 | 1015.0 |
| 20260502014839 | 15 | 229 | 17.7 | 32.2 | 0.00 | 0.00 | 0.00 | 72 | 1014.9 |